Date String (YYYY-MM-DD hh:mm:ss) UTC,Instrument flags,Ambient pressure (hPa),Sample flow (lpm),Bypass flow (lpm),Sample temperature (°C),Ambient temperature (°C),ASC tube jacket temperature (°C),LED temperature (°C),Box temperature (°C),Sample RH (%),Span deviation,Mass concentration (μg/m³),Mass concentration (μg/m³),Mass concentration (μg/m³)
DateTimeUTC,F1_M11,P_M11,Q1_M11,Q2_M11,T1_M11,T2_M11,T3_M11,T4_M11,T5_M11,U1_M11,ZSPAN_M11,X0_M11,X2_M11,X1_M11
2022-04-17 15:00:00,,0824.0,5.00,0.00,23.8,23.1,00.0,32.7,25.6,14.2,0001.2,0035.39,0006.88,0004.35
2022-04-17 15:01:00,,0824.1,5.00,0.00,23.8,23.0,00.0,32.7,25.6,14.2,0001.9,0035.46,0006.91,0004.35
2022-04-17 15:02:00,,0824.1,5.00,0.00,23.8,23.0,00.0,32.7,25.6,14.2,0002.8,0035.18,0006.87,0004.34
2022-04-17 15:03:00,,0824.1,5.01,0.00,23.8,23.0,00.0,32.7,25.6,14.4,0003.2,0034.06,0006.89,0004.36
2022-04-17 15:04:00,,0824.1,5.01,0.00,23.8,23.0,00.0,32.7,25.5,14.5,0004.2,0030.28,0006.82,0004.37
2022-04-17 15:05:00,,0824.0,5.00,0.00,23.8,23.0,00.0,32.7,25.5,14.5,0001.9,0026.23,0006.76,0004.37
2022-04-17 15:06:00,,0824.0,5.00,0.00,23.8,23.0,00.0,32.7,25.5,14.5,0003.2,0025.34,0006.74,0004.39
2022-04-17 15:07:00,,0824.0,4.99,0.00,23.8,23.0,00.0,32.7,25.6,14.6,0004.6,0026.51,0006.81,0004.43
2022-04-17 15:08:00,,0824.1,5.00,0.00,23.8,23.0,00.0,32.7,25.6,14.8,0004.9,0026.33,0006.86,0004.45
2022-04-17 15:09:00,,0824.1,5.00,0.00,23.8,23.0,00.0,32.7,25.6,14.8,0004.6,0028.51,0006.86,0004.44
2022-04-17 15:10:00,,0824.0,5.01,0.00,23.8,23.0,00.0,32.7,25.5,15.0,0004.3,0030.11,0006.95,0004.44
2022-04-17 15:11:00,,0824.1,5.00,0.00,23.7,23.0,00.0,32.7,25.5,14.9,0003.3,0028.48,0006.92,0004.43
2022-04-17 15:12:00,,0824.1,5.01,0.00,23.7,23.0,00.0,32.7,25.6,14.9,0003.7,0027.67,0006.85,0004.43
2022-04-17 15:13:00,,0824.1,5.00,0.00,23.7,23.0,00.0,32.7,25.6,15.1,0002.5,0027.67,0006.89,0004.43
2022-04-17 15:14:00,,0824.0,5.00,0.00,23.8,23.0,00.0,32.7,25.6,15.2,0000.0,0028.90,0006.84,0004.41
2022-04-17 15:15:00,,0824.0,5.00,0.00,23.8,23.1,00.0,32.7,25.6,14.9,0002.1,0029.70,0006.83,0004.39
2022-04-17 15:16:00,,0824.1,5.00,0.00,23.8,23.1,00.0,32.7,25.6,15.0,0001.9,0030.47,0006.80,0004.36
2022-04-17 15:17:00,,0824.1,4.99,0.00,23.8,23.1,00.0,32.7,25.6,14.9,0002.1,0032.05,0006.76,0004.35
2022-04-17 15:18:00,,0824.0,5.00,0.00,23.9,23.2,00.0,32.7,25.7,14.9,0000.0,0031.17,0006.74,0004.33
2022-04-17 15:19:00,,0824.0,5.00,0.00,23.9,23.2,00.0,32.7,25.7,14.9,0000.0,0032.14,0006.75,0004.33
2022-04-17 15:20:00,,0824.0,5.00,0.00,23.9,23.2,00.0,32.8,25.7,14.8,0000.0,0029.91,0006.75,0004.33
2022-04-17 15:21:00,,0824.1,5.00,0.00,23.9,23.2,00.0,32.8,25.7,15.0,0000.0,0027.99,0006.70,0004.31
2022-04-17 15:22:00,,0824.3,5.00,0.00,23.9,23.2,00.0,32.8,25.8,15.1,0000.0,0027.57,0006.69,0004.31
2022-04-17 15:23:00,,0824.3,5.01,0.00,23.9,23.2,00.0,32.8,25.8,14.9,0000.0,0027.65,0006.71,0004.30
2022-04-17 15:24:00,,0824.2,5.00,0.00,23.9,23.2,00.0,32.8,25.7,14.7,0000.0,0028.22,0006.62,0004.27
2022-04-17 15:25:00,,0824.3,5.00,0.00,23.9,23.2,00.0,32.8,25.7,14.8,0000.0,0027.84,0006.60,0004.26
2022-04-17 15:26:00,,0824.2,4.99,0.00,23.9,23.2,00.0,32.8,25.7,15.1,0000.0,0027.64,0006.62,0004.27
2022-04-17 15:27:00,,0824.2,5.00,0.00,23.9,23.2,00.0,32.8,25.7,15.0,0000.0,0028.09,0006.71,0004.28
2022-04-17 15:28:00,,0824.1,5.00,0.00,23.9,23.2,00.0,32.8,25.7,15.2,0000.0,0026.67,0006.77,0004.27
2022-04-17 15:29:00,,0824.0,5.00,0.00,23.9,23.2,00.0,32.8,25.7,15.3,0000.0,0026.47,0006.76,0004.26
2022-04-17 15:30:00,,0824.0,5.00,0.00,23.9,23.2,00.0,32.8,25.7,15.3,0000.0,0025.18,0006.70,0004.24
2022-04-17 15:31:00,,0824.1,5.00,0.00,23.9,23.2,00.0,32.8,25.7,15.2,0000.0,0023.94,0006.67,0004.23
2022-04-17 15:32:00,,0824.0,4.99,0.00,23.9,23.2,00.0,32.8,25.7,14.9,0000.0,0023.79,0006.59,0004.22
2022-04-17 15:33:00,,0824.1,5.00,0.00,23.9,23.2,00.0,32.8,25.7,15.0,0000.0,0023.67,0006.55,0004.20
2022-04-17 15:34:00,,0824.1,4.99,0.00,23.9,23.2,00.0,32.8,25.7,15.2,0000.0,0023.24,0006.45,0004.19
2022-04-17 15:35:00,,0824.1,5.00,0.00,23.9,23.2,00.0,32.8,25.7,15.5,0000.0,0023.91,0006.48,0004.20
2022-04-17 15:36:00,,0824.2,5.00,0.00,23.9,23.2,00.0,32.8,25.7,15.3,0000.0,0023.78,0006.53,0004.22
2022-04-17 15:37:00,,0824.2,5.00,0.00,23.9,23.2,00.0,32.8,25.7,15.1,0000.0,0024.24,0006.60,0004.22
2022-04-17 15:38:00,,0824.2,5.01,0.00,23.9,23.2,00.0,32.8,25.7,15.2,0000.0,0023.16,0006.56,0004.23
2022-04-17 15:39:00,,0824.1,5.00,0.00,23.9,23.2,00.0,32.8,25.7,15.3,0000.0,0022.55,0006.57,0004.24
2022-04-17 15:40:00,,0824.3,4.99,0.00,23.9,23.2,00.0,32.9,25.7,15.4,0000.0,0021.57,0006.54,0004.27
2022-04-17 15:41:00,,0824.2,5.00,0.00,23.9,23.2,00.0,32.8,25.7,15.3,0000.0,0020.88,0006.61,0004.31
2022-04-17 15:42:00,,0824.1,5.00,0.00,23.9,23.2,00.0,32.8,25.7,15.3,0000.0,0021.74,0006.65,0004.35
2022-04-17 15:43:00,,0824.2,5.00,0.00,23.9,23.2,00.0,32.8,25.8,15.3,0000.0,0021.88,0006.71,0004.38
2022-04-17 15:44:00,,0824.2,5.00,0.00,24.0,23.2,00.0,32.8,25.9,15.0,0000.0,0021.38,0006.66,0004.36
2022-04-17 15:45:00,,0824.1,5.01,0.00,24.0,23.3,00.0,32.8,25.9,15.0,0000.0,0022.07,0006.76,0004.36
2022-04-17 15:46:00,,0824.2,4.99,0.00,24.0,23.3,00.0,32.9,25.9,14.9,0000.0,0021.22,0006.76,0004.35
2022-04-17 15:47:00,,0824.2,5.01,0.00,24.0,23.3,00.0,32.9,25.9,15.1,0000.0,0019.98,0006.62,0004.30
2022-04-17 15:48:00,,0824.3,4.99,0.00,24.1,23.4,00.0,32.9,25.9,15.3,0000.0,0019.06,0006.56,0004.28
2022-04-17 15:49:00,,0824.3,5.00,0.00,24.1,23.4,00.0,32.9,26.0,15.2,0000.0,0019.33,0006.58,0004.29
2022-04-17 15:50:00,,0824.1,5.01,0.00,24.1,23.5,00.0,32.9,26.0,14.0,0000.0,0019.95,0006.46,0004.22
2022-04-17 15:51:00,,0824.1,4.99,0.00,24.1,23.5,00.0,32.9,26.0,13.1,0001.9,0021.34,0006.22,0004.02
2022-04-17 15:52:00,,0824.2,4.99,0.00,24.2,23.4,00.0,33.0,26.0,12.9,0000.7,0021.25,0005.93,0003.80
2022-04-17 15:53:00,,0824.2,5.00,0.00,24.2,23.4,00.0,33.0,26.0,12.9,0000.0,0021.11,0005.73,0003.58
2022-04-17 15:54:00,,0824.2,5.01,0.00,24.2,23.4,00.0,33.0,26.0,13.2,0000.0,0020.21,0005.52,0003.38
2022-04-17 15:55:00,,0824.1,5.00,0.00,24.2,23.4,00.0,33.0,26.0,12.9,0000.0,0019.87,0005.36,0003.22
2022-04-17 15:56:00,,0824.1,5.00,0.00,24.2,23.4,00.0,33.0,26.0,12.6,0000.0,0018.81,0005.19,0002.99
2022-04-17 15:57:00,,0824.2,5.00,0.00,24.2,23.4,00.0,33.0,26.0,12.8,0000.0,0018.07,0005.03,0002.70
2022-04-17 15:58:00,,0824.1,5.01,0.00,24.2,23.4,00.0,33.0,26.0,12.5,0000.0,0017.88,0004.96,0002.43
2022-04-17 15:59:00,,0824.1,5.01,0.00,24.2,23.4,00.0,33.0,26.0,12.2,0000.0,0017.53,0004.80,0002.11
